User: anonymous   Login
Location: Unspecified
(0.0000°N, 0.0000°E)
Time: 07:51:05
(UTC+00:00)
Language:

COSMOS 2438 - Orbit

View from above orbital plane
View from above orbital plane
View from above satellite
View from above satellite

Ground track
Ground track

The orbit data is extracted from the following two-line orbital elements,

1 32955U 08025C   17328.74734641 -.00000000  00000-0 -73352-4 0  9992
2 32955  82.4973 138.3915 0020124 291.3883  68.5040 12.43300850431470
Epoch (UTC): 24 November 2017 17:56:10
Eccentricity: 0.0020124
inclination: 82.4973°
perigee height: 1477 km
apogee height: 1508 km
right ascension of ascending node: 138.3915°
argument of perigee: 291.3883°
revolutions per day: 12.43300850
mean anomaly at epoch: 68.5040°
orbit number at epoch: 43147

The dashed part of the orbit path shows where the satellite is in the earth's shadow,  

DLR